Sigfox identifier Datetime Temperature Humidity SNR
003AD064 2019-02-20 13:53:43 20.8 24 24.4
003AD064 2019-02-20 13:24:03 20.8 24 24.4
003AD064 2019-02-20 12:54:23 20.8 25 23.7
003AD064 2019-02-20 12:24:45 20.8 25 23
003AD064 2019-02-20 11:55:06 20.8 26 22.9
003AD064 2019-02-20 11:25:26 20.8 26 22
003AD064 2019-02-20 10:55:46 20.8 26 21
003AD064 2019-02-20 10:26:07 20.8 27 21.1
003AD064 2019-02-20 09:26:45 20.7 27 21.1
003AD064 2019-02-20 08:57:04 20.7 27 20
003AD064 2019-02-20 08:27:26 20.7 27 20.1
003AD064 2019-02-20 07:57:43 20.7 27 20.1
003AD064 2019-02-20 07:28:05 20.7 27 20
003AD064 2019-02-20 06:58:29 20.7 27 19.9
003AD064 2019-02-20 06:28:48 20.7 27 20.2
003AD064 2019-02-20 05:59:08 20.7 27 20.4
003AD064 2019-02-20 05:29:30 20.7 27 20.2
003AD064 2019-02-20 04:59:51 20.8 27 20.1
003AD064 2019-02-20 04:30:12 20.8 27 20
003AD064 2019-02-20 04:00:33 20.8 27 20
003AD064 2019-02-20 03:30:54 20.8 27 20.1
003AD064 2019-02-20 03:01:15 20.8 27 20.2
003AD064 2019-02-20 02:31:36 20.8 27 20.2
003AD064 2019-02-20 02:01:57 20.8 27 20.2
003AD064 2019-02-20 01:32:18 20.8 27 20.1
003AD064 2019-02-20 01:02:38 20.8 27 20.1
003AD064 2019-02-20 00:32:59 20.8 27 20.3
003AD064 2019-02-20 00:03:20 20.8 27 21.6
003AD064 2019-02-19 23:33:41 20.8 27 22.6
003AD064 2019-02-19 23:04:04 20.9 27 22.6
003AD064 2019-02-19 22:34:28 20.9 27 22.5
003AD064 2019-02-19 22:04:48 20.9 27 22.6
003AD064 2019-02-19 21:35:09 20.9 27 22.5
003AD064 2019-02-19 21:05:34 20.9 27 22.6
003AD064 2019-02-19 20:35:50 20.9 27 22.5
003AD064 2019-02-19 20:06:13 20.9 27 22.4
003AD064 2019-02-19 19:36:32 21 27 22.4
003AD064 2019-02-19 19:06:53 21 27 22.2
003AD064 2019-02-19 18:37:14 21.2 26 22.3
003AD064 2019-02-19 18:36:05 21 27 22.2
003AD064 2019-02-19 18:06:26 21 27 22
003AD064 2019-02-19 17:36:47 21.1 27 22.2
003AD064 2019-02-19 17:07:08 21 27 22.2
003AD064 2019-02-19 16:37:31 21.1 27 22.2
003AD064 2019-02-19 16:07:50 21.1 27 22.1
003AD064 2019-02-19 15:38:12 21.1 27 22
003AD064 2019-02-19 15:08:29 21 27 22.1
003AD064 2019-02-19 14:38:54 21 27 22.1
003AD064 2019-02-19 14:09:09 21 27 22.2
003AD064 2019-02-19 13:09:52 21 26 22.4
003AD064 2019-02-19 12:40:09 21 26 22.6
003AD064 2019-02-19 12:10:30 21 26 22.6
003AD064 2019-02-19 11:11:11 20.9 26 21.5
003AD064 2019-02-19 10:41:29 20.9 26 20.1
003AD064 2019-02-19 10:11:51 20.9 25 20.2
003AD064 2019-02-19 09:42:12 20.8 25 20.3
003AD064 2019-02-19 09:12:37 20.8 25 20.1
003AD064 2019-02-19 08:42:54 20.8 25 20.4
003AD064 2019-02-19 08:13:16 20.8 25 20.2
003AD064 2019-02-19 07:43:41 20.8 24 20.1
003AD064 2019-02-19 07:14:00 20.8 24 20.1
003AD064 2019-02-19 06:44:22 20.8 24 20
003AD064 2019-02-19 06:14:43 20.8 24 20.2
003AD064 2019-02-19 05:45:04 20.8 24 20.1
003AD064 2019-02-19 05:15:25 20.8 24 20.1
003AD064 2019-02-19 04:45:44 20.8 24 19.9
003AD064 2019-02-19 04:16:04 20.8 24 19.7
003AD064 2019-02-19 03:46:27 20.8 24 19.5
003AD064 2019-02-19 03:16:46 20.8 24 19.5
003AD064 2019-02-19 02:47:08 20.8 24 21.1
003AD064 2019-02-19 02:17:30 20.8 23 21.3
003AD064 2019-02-19 01:47:52 20.8 23 21.1
003AD064 2019-02-19 01:18:14 20.8 23 21
003AD064 2019-02-19 00:48:35 20.7 23 20.9
003AD064 2019-02-19 00:18:56 20.8 23 21.8
003AD064 2019-02-18 23:49:17 20.8 23 21.5
003AD064 2019-02-18 23:19:38 20.8 23 21.5
003AD064 2019-02-18 22:50:00 20.8 23 21.5
003AD064 2019-02-18 22:20:21 20.8 22 21.5
003AD064 2019-02-18 21:50:42 20.8 22 21.4
003AD064 2019-02-18 21:21:06 20.8 22 21.4
003AD064 2019-02-18 20:51:26 20.8 22 21.3
003AD064 2019-02-18 20:21:48 20.8 22 21.9
003AD064 2019-02-18 19:52:10 20.8 22 22.3
003AD064 2019-02-18 19:22:31 20.9 22 22.4
003AD064 2019-02-18 18:52:52 20.9 22 22.5
003AD064 2019-02-18 18:23:15 21.1 21 22.6
003AD064 2019-02-18 18:22:06 20.9 21 22.8
003AD064 2019-02-18 17:52:29 20.9 21 22.8
003AD064 2019-02-18 17:22:51 20.9 21 22.9
003AD064 2019-02-18 16:53:13 21 21 23.1
003AD064 2019-02-18 16:23:40 21 21 23.3
003AD064 2019-02-18 15:53:59 21 21 23.5
003AD064 2019-02-18 15:24:21 21 21 23
003AD064 2019-02-18 14:54:45 21.1 21 23
003AD064 2019-02-18 14:25:09 21.1 20 23.1
003AD064 2019-02-18 13:55:30 21.1 20 23.3
003AD064 2019-02-18 13:25:52 21.1 20 23.4
003AD064 2019-02-18 12:56:15 21.2 19 23.4
003AD064 2019-02-18 12:26:37 21.3 19 23.5
003AD064 2019-02-18 11:56:59 21.3 19 23.7
003AD064 2019-02-18 11:27:21 21.2 19 23.9
003AD064 2019-02-18 10:57:42 21.2 19 24.5
003AD064 2019-02-18 10:28:05 21.2 19 24.6
003AD064 2019-02-18 09:58:28 21.2 19 24.7
003AD064 2019-02-18 09:28:51 21.1 19 24.8
003AD064 2019-02-18 08:59:12 21.1 19 24.9
003AD064 2019-02-18 08:29:33 21.1 18 24.9
003AD064 2019-02-18 07:59:54 21 18 24.9
003AD064 2019-02-18 07:30:15 20.9 18 24.9
003AD064 2019-02-18 07:00:36 20.9 18 24.9
003AD064 2019-02-18 06:30:58 20.9 18 25.1
003AD064 2019-02-18 06:01:21 20.9 18 25
003AD064 2019-02-18 05:31:42 20.9 18 25.1
003AD064 2019-02-18 05:02:04 20.9 18 25.1
003AD064 2019-02-18 04:32:27 20.9 18 25
003AD064 2019-02-18 04:02:49 20.9 18 25
003AD064 2019-02-18 03:33:12 20.9 19 24.9
003AD064 2019-02-18 03:03:35 20.9 19 24.9
003AD064 2019-02-18 02:33:57 20.9 19 25
003AD064 2019-02-18 02:04:18 20.9 19 25.1
003AD064 2019-02-18 01:34:39 21 19 24.9
003AD064 2019-02-18 01:05:00 20.9 19 24.9
003AD064 2019-02-18 00:35:21 21 19 24.5
003AD064 2019-02-18 00:05:41 21 19 24.5
003AD064 2019-02-17 23:36:01 21 19 24.5
003AD064 2019-02-17 23:06:23 21 19 24.4
003AD064 2019-02-17 22:36:44 21 19 23.9
003AD064 2019-02-17 22:07:05 20.9 19 24
003AD064 2019-02-17 21:37:26 20.9 19 24
003AD064 2019-02-17 21:07:46 20.9 20 24.1
003AD064 2019-02-17 20:38:05 20.9 20 23.9
003AD064 2019-02-17 20:08:26 21 20 23.9
003AD064 2019-02-17 19:38:47 21 20 23.8
003AD064 2019-02-17 19:09:09 21 20 23.7
003AD064 2019-02-17 18:39:29 20.9 20 23.7
003AD064 2019-02-17 18:09:50 21.2 19 23.6
003AD064 2019-02-17 18:08:41 20.9 20 23.6
003AD064 2019-02-17 17:39:00 21 20 23.6
003AD064 2019-02-17 17:09:21 21 20 23.5
003AD064 2019-02-17 16:39:41 21 20 23.7
003AD064 2019-02-17 16:10:00 21 20 23.7
003AD064 2019-02-17 15:40:18 21 20 23.9
003AD064 2019-02-17 15:10:37 21 20 23.7
003AD064 2019-02-17 14:40:56 21 20 23.5
003AD064 2019-02-17 14:11:15 21.1 21 23.4
003AD064 2019-02-17 13:41:34 21.1 21 23.7
003AD064 2019-02-17 13:11:52 21.1 21 23.7
003AD064 2019-02-17 12:42:11 21.1 21 23.7
003AD064 2019-02-17 12:12:31 21.1 21 23.8
003AD064 2019-02-17 11:42:51 21 21 23.9
003AD064 2019-02-17 11:13:12 21 21 24
003AD064 2019-02-17 10:43:33 21 21 23.8
003AD064 2019-02-17 10:13:55 21 21 23.8
003AD064 2019-02-17 09:44:16 21 21 23.9
003AD064 2019-02-17 09:14:37 21 21 23.9
003AD064 2019-02-17 08:44:59 21 21 24
003AD064 2019-02-17 08:15:21 21 21 24
003AD064 2019-02-17 07:45:41 21 22 24.1
003AD064 2019-02-17 07:16:03 21 22 24
003AD064 2019-02-17 06:46:24 21 22 24
003AD064 2019-02-17 06:16:46 21 22 24.2
003AD064 2019-02-17 05:47:08 21.1 22 24.2
003AD064 2019-02-17 05:17:30 21.1 22 24.2
003AD064 2019-02-17 04:47:53 21.1 23 24.4
003AD064 2019-02-17 04:18:15 21.1 23 24.2
003AD064 2019-02-17 03:48:37 21.1 23 24.4
003AD064 2019-02-17 03:18:58 21.1 23 24.3
003AD064 2019-02-17 02:49:20 21.1 23 24.5
003AD064 2019-02-17 02:19:42 21.1 24 25
003AD064 2019-02-17 01:50:05 21.1 24 25.2
003AD064 2019-02-17 01:20:28 21.1 24 25
003AD064 2019-02-17 00:50:50 21.1 24 25.1
003AD064 2019-02-17 00:21:13 21.1 24 25.2
003AD064 2019-02-16 23:51:37 21.1 24 25.2
003AD064 2019-02-16 23:22:00 21.1 24 25.2
003AD064 2019-02-16 22:52:21 21.1 24 25.2
003AD064 2019-02-16 22:22:43 21.1 24 25.4
003AD064 2019-02-16 21:53:03 21.2 25 25.3
003AD064 2019-02-16 21:23:25 21.1 25 25.3
003AD064 2019-02-16 20:53:47 21.1 25 25.3
003AD064 2019-02-16 20:24:09 21.1 25 25.2
003AD064 2019-02-16 19:54:30 21.1 25 25.3
003AD064 2019-02-16 19:24:51 21.1 25 25.1
003AD064 2019-02-16 18:55:13 21 25 25.2
003AD064 2019-02-16 18:25:34 21 25 25.3
003AD064 2019-02-16 17:55:56 21.3 25 25.2
003AD064 2019-02-16 17:54:48 21.1 25 25.3
003AD064 2019-02-16 17:25:10 21.2 25 25.2
003AD064 2019-02-16 16:55:30 21.2 25 25
003AD064 2019-02-16 16:25:52 21.2 25 25.2
003AD064 2019-02-16 15:56:13 21.2 25 25
003AD064 2019-02-16 15:26:35 21.2 25 25
003AD064 2019-02-16 14:56:56 21.2 25 24.9
003AD064 2019-02-16 14:27:17 21.2 25 24.4
003AD064 2019-02-16 13:57:38 21.2 25 24.4
003AD064 2019-02-16 13:27:59 21.2 25 24.6
003AD064 2019-02-16 12:58:20 21.2 25 24.6
003AD064 2019-02-16 12:28:40 21.2 25 24.6
003AD064 2019-02-16 11:59:01 21.2 25 24.6
003AD064 2019-02-16 11:29:22 21.2 25 24.4
003AD064 2019-02-16 10:59:43 21.1 25 24.4
003AD064 2019-02-16 10:30:04 21.1 25 24.4
003AD064 2019-02-16 10:00:25 21.1 25 24.4
003AD064 2019-02-16 09:30:46 21.1 25 24.4
003AD064 2019-02-16 09:01:07 21.1 25 24.3
003AD064 2019-02-16 08:31:29 21.1 25 24.4
003AD064 2019-02-16 08:01:51 21.1 25 24.3
003AD064 2019-02-16 07:32:12 21.1 25 24.3
003AD064 2019-02-16 07:02:34 21.1 25 24.4
003AD064 2019-02-16 06:32:55 21.1 25 24.3
003AD064 2019-02-16 06:03:15 21.1 25 24.2
003AD064 2019-02-16 05:33:36 21.1 25 24.1
003AD064 2019-02-16 05:03:55 21.1 25 24.3
003AD064 2019-02-16 04:34:17 21.1 25 24.4
003AD064 2019-02-16 04:04:38 21.1 25 24.2
003AD064 2019-02-16 03:34:59 21.1 25 24.1
003AD064 2019-02-16 03:05:20 21.2 25 24.1
003AD064 2019-02-16 02:35:40 21.2 25 24.3
003AD064 2019-02-16 02:06:00 21.2 25 24.3
003AD064 2019-02-16 01:36:22 21.2 25 24.2
003AD064 2019-02-16 01:06:42 21.2 25 24.2
003AD064 2019-02-16 00:37:03 21.2 25 24
003AD064 2019-02-16 00:07:23 21.2 25 23.8
003AD064 2019-02-15 23:37:44 21.2 25 23.7
003AD064 2019-02-15 23:08:03 21.2 25 24
003AD064 2019-02-15 22:38:24 21.3 25 23.9
003AD064 2019-02-15 22:08:44 21.3 25 23.7
003AD064 2019-02-15 21:39:04 21.4 25 23.6
003AD064 2019-02-15 21:09:24 21.4 25 23.8
003AD064 2019-02-15 20:39:44 21.5 25 23.8
003AD064 2019-02-15 20:10:03 21.5 25 23.8
003AD064 2019-02-15 19:40:24 21.6 25 23.8
003AD064 2019-02-15 19:10:45 21.6 25 23.8
003AD064 2019-02-15 18:41:06 21.7 25 23.9
003AD064 2019-02-15 18:11:27 21.7 25 24
003AD064 2019-02-15 17:41:48 21.9 24 24
003AD064 2019-02-15 17:40:39 21.7 24 24.1
003AD064 2019-02-15 17:11:00 21.7 24 24
003AD064 2019-02-15 16:41:21 21.6 24 24.3
003AD064 2019-02-15 16:11:42 21.6 24 24.4
003AD064 2019-02-15 15:42:02 21.6 24 24.5
003AD064 2019-02-15 15:12:21 21.7 24 24.5
003AD064 2019-02-15 14:42:42 21.6 24 24.5
003AD064 2019-02-15 14:13:03 21.6 24 24.6
003AD064 2019-02-15 13:43:23 21.6 24 24.6
003AD064 2019-02-15 13:13:44 21.6 24 24.6
003AD064 2019-02-15 12:44:04 21.6 24 24.5
003AD064 2019-02-15 12:14:25 21.6 24 24.6
003AD064 2019-02-15 11:44:45 21.5 24 24.7
003AD064 2019-02-15 11:15:03 21.5 24 24.7
003AD064 2019-02-15 10:45:22 21.5 25 24.9
003AD064 2019-02-15 10:15:41 21.5 25 24.9
003AD064 2019-02-15 09:46:02 21.5 25 25
003AD064 2019-02-15 09:16:22 21.4 25 25.1
003AD064 2019-02-15 08:46:43 21.3 25 25.2
003AD064 2019-02-15 08:17:04 21.3 25 25.1
003AD064 2019-02-15 07:47:25 21.3 25 25.1
003AD064 2019-02-15 07:17:45 21.3 25 25
003AD064 2019-02-15 06:48:05 21.3 25 25.1
003AD064 2019-02-15 06:18:25 21.3 25 25.4
003AD064 2019-02-15 05:48:45 21.3 25 25.4
003AD064 2019-02-15 05:19:05 21.3 25 25.5
003AD064 2019-02-15 04:49:25 21.3 25 25.4
003AD064 2019-02-15 04:19:46 21.3 25 25.2
003AD064 2019-02-15 03:50:06 21.3 25 25.2
003AD064 2019-02-15 03:20:27 21.3 25 25.1
003AD064 2019-02-15 02:50:47 21.3 25 25.1
003AD064 2019-02-15 02:21:07 21.3 25 25.1
003AD064 2019-02-15 01:51:27 21.3 25 25.1
003AD064 2019-02-15 01:21:46 21.3 25 25.1
003AD064 2019-02-15 00:52:05 21.3 25 25.2
003AD064 2019-02-15 00:22:24 21.4 25 25.2
003AD064 2019-02-14 23:52:43 21.4 25 25.3
003AD064 2019-02-14 23:23:02 21.4 25 25.6
003AD064 2019-02-14 22:53:21 21.4 25 25.9
003AD064 2019-02-14 22:23:40 21.4 25 25.8
003AD064 2019-02-14 21:54:01 21.4 25 25.7
003AD064 2019-02-14 21:24:20 21.4 25 25.5
003AD064 2019-02-14 20:54:40 21.5 24 25.4
003AD064 2019-02-14 20:24:59 21.6 24 25.3
003AD064 2019-02-14 19:55:18 21.6 24 25.4
003AD064 2019-02-14 19:25:38 21.7 24 25.3
003AD064 2019-02-14 18:55:58 21.8 24 25.5
003AD064 2019-02-14 18:26:18 21.8 24 25.5
003AD064 2019-02-14 17:56:38 21.8 24 25.2
003AD064 2019-02-14 17:26:58 22.1 24 25.3
003AD064 2019-02-14 17:25:48 21.9 24 25.5
003AD064 2019-02-14 16:56:09 21.9 24 25.5
003AD064 2019-02-14 16:26:29 21.9 24 25.5
003AD064 2019-02-14 15:56:49 21.8 24 25.6
003AD064 2019-02-14 15:27:08 21.7 24 25.6
003AD064 2019-02-14 14:57:26 21.7 24 25.6
003AD064 2019-02-14 14:27:46 21.7 24 25.7
003AD064 2019-02-14 13:58:06 21.6 23 25.8
003AD064 2019-02-14 13:28:27 21.5 23 25.8
003AD064 2019-02-14 12:58:48 21.4 23 25.7
003AD064 2019-02-14 12:29:08 21.4 22 25.7
003AD064 2019-02-14 11:59:28 21.3 23 25.7
003AD064 2019-02-14 11:29:49 21.2 23 25.4
003AD064 2019-02-14 11:00:09 21.1 23 25.1
003AD064 2019-02-14 10:30:30 21 24 25.3
003AD064 2019-02-14 10:00:50 21 23 25.5
003AD064 2019-02-14 09:31:11 20.9 23 25.5
003AD064 2019-02-14 09:01:32 20.9 23 25.5
003AD064 2019-02-14 08:31:53 20.9 23 25.5
003AD064 2019-02-14 08:02:14 20.9 24 25.4
003AD064 2019-02-14 07:32:35 20.9 24 25.6
003AD064 2019-02-14 07:02:56 20.9 25 25.5
003AD064 2019-02-14 06:33:19 20.9 25 25.4
003AD064 2019-02-14 06:03:40 20.9 25 25.4
003AD064 2019-02-14 05:34:00 21 25 25.4
003AD064 2019-02-14 05:04:22 21 25 25.1
003AD064 2019-02-14 04:34:43 21 25 25
003AD064 2019-02-14 04:05:05 21 25 25
003AD064 2019-02-14 03:35:25 21 25 24.8
003AD064 2019-02-14 03:05:46 21 25 25
003AD064 2019-02-14 02:36:08 21 25 24.8
003AD064 2019-02-14 02:06:29 21 25 24.7
003AD064 2019-02-14 01:36:50 21 25 24.7
003AD064 2019-02-14 01:07:10 21 25 24.7
003AD064 2019-02-14 00:37:31 21 24 24.5
003AD064 2019-02-14 00:07:51 21 24 24.5
003AD064 2019-02-13 23:38:12 21.1 24 24.4
003AD064 2019-02-13 23:08:33 21.1 24 24.3
003AD064 2019-02-13 22:38:52 21.2 24 24.1
003AD064 2019-02-13 22:09:13 21.2 24 24
003AD064 2019-02-13 21:39:34 21.3 25 23.8
003AD064 2019-02-13 21:09:55 21.3 25 24.1
003AD064 2019-02-13 20:40:15 21.4 25 24.1
003AD064 2019-02-13 20:10:36 21.4 25 24.2
003AD064 2019-02-13 19:40:57 21.5 25 24.6
003AD064 2019-02-13 19:11:18 21.6 25 24.7
003AD064 2019-02-13 18:41:40 21.6 25 24.7
003AD064 2019-02-13 18:12:01 21.6 26 24.7
003AD064 2019-02-13 17:42:23 21.6 26 24.7
003AD064 2019-02-13 17:12:44 21.7 26 24.7
003AD064 2019-02-13 17:11:36 21.5 26 24.8
003AD064 2019-02-13 16:41:57 21.4 27 24.8
003AD064 2019-02-13 16:12:19 21.4 26 25
003AD064 2019-02-13 15:42:40 21.3 26 25.1
003AD064 2019-02-13 15:13:01 21.2 26 25
003AD064 2019-02-13 14:43:23 21.2 25 25
003AD064 2019-02-13 14:13:43 21.2 24 25
003AD064 2019-02-13 13:44:04 21.3 24 24.8
003AD064 2019-02-13 13:14:25 21.3 24 24.7
003AD064 2019-02-13 12:44:46 21.3 25 24.9
003AD064 2019-02-13 12:15:07 21.2 24 25
003AD064 2019-02-13 11:45:27 21.1 25 25
003AD064 2019-02-13 11:15:47 21 25 24.9
003AD064 2019-02-13 10:46:07 20.9 25 25
003AD064 2019-02-13 10:16:27 20.9 23 24.9
003AD064 2019-02-13 09:46:47 20.9 23 25.3
003AD064 2019-02-13 09:17:06 20.9 22 25.3
003AD064 2019-02-13 08:47:25 20.9 21 25.3
003AD064 2019-02-13 08:17:45 20.9 21 25.2
003AD064 2019-02-13 07:48:05 20.9 20 24.9
003AD064 2019-02-13 07:18:26 20.9 19 24.8
003AD064 2019-02-13 06:48:47 20.9 19 24.8
003AD064 2019-02-13 06:19:08 20.9 19 24.7
003AD064 2019-02-13 05:49:29 20.9 19 24.7
003AD064 2019-02-13 05:19:50 20.9 19 24.6
003AD064 2019-02-13 04:50:10 20.9 19 24.3
003AD064 2019-02-13 04:20:31 21 19 24.3
003AD064 2019-02-13 03:50:51 20.9 19 24.3
003AD064 2019-02-13 03:21:11 21 19 24.4
003AD064 2019-02-13 02:51:33 21 19 24.9
003AD064 2019-02-13 02:21:54 21 18 24.8
003AD064 2019-02-13 01:52:16 21 18 24.9
003AD064 2019-02-13 01:22:35 21 17 24.8
003AD064 2019-02-13 00:52:57 21.1 17 24.8
003AD064 2019-02-13 00:23:18 21.1 18 24.7
003AD064 2019-02-12 23:53:39 21.1 19 24.6
003AD064 2019-02-12 23:24:00 21.1 19 24.7
003AD064 2019-02-12 22:54:21 21.1 19 24.7
003AD064 2019-02-12 22:24:42 21.2 18 24.7
003AD064 2019-02-12 21:55:01 21.2 19 24.9
003AD064 2019-02-12 21:25:19 21.3 19 24.5
003AD064 2019-02-12 20:55:39 21.3 21 24.5
003AD064 2019-02-12 20:25:59 21.4 21 24.5
003AD064 2019-02-12 19:56:19 21.4 20 24.5
003AD064 2019-02-12 19:26:38 21.3 20 24.5
003AD064 2019-02-12 18:56:58 21.3 19 24.4
003AD064 2019-02-12 18:27:17 21.3 19 24.4
003AD064 2019-02-12 17:57:36 21.4 18 24.4
003AD064 2019-02-12 17:27:56 21.4 18 24.3
003AD064 2019-02-12 16:58:17 21.7 18 24.3
003AD064 2019-02-12 16:57:08 21.5 18 24.5
003AD064 2019-02-12 16:27:29 21.5 18 24.5
003AD064 2019-02-12 15:57:51 21.5 18 24.3
003AD064 2019-02-12 15:28:14 21.5 18 24.2
003AD064 2019-02-12 14:58:36 21.4 18 23.6
003AD064 2019-02-12 14:28:59 21.3 18 23.6
003AD064 2019-02-12 13:59:21 21.3 18 23.5
003AD064 2019-02-12 13:29:45 21.4 18 23.6
003AD064 2019-02-12 13:00:06 21.4 18 23.7
003AD064 2019-02-12 12:30:28 21.4 18 23.6
003AD064 2019-02-12 12:00:49 21.3 18 23.5
003AD064 2019-02-12 11:31:11 21.3 18 23.5
003AD064 2019-02-12 11:01:33 21.2 19 23.4
003AD064 2019-02-12 10:31:55 21.2 20 23.2
003AD064 2019-02-12 10:02:18 21.1 19 23.1
003AD064 2019-02-12 09:32:39 21 21 23
003AD064 2019-02-12 09:03:02 21 23 22.8
003AD064 2019-02-12 08:33:24 20.9 23 22.8
003AD064 2019-02-12 08:03:46 20.9 22 22.5
003AD064 2019-02-12 07:34:08 20.9 23 22.3
003AD064 2019-02-12 07:04:30 20.9 26 22.1
003AD064 2019-02-12 06:34:51 20.9 26 22
003AD064 2019-02-12 06:05:14 21 26 22
003AD064 2019-02-12 05:35:35 21 26 22.1
003AD064 2019-02-12 05:05:55 20.9 26 21.8
003AD064 2019-02-12 04:36:19 21 26 21.6
003AD064 2019-02-12 04:06:36 21 27 21.4
003AD064 2019-02-12 03:36:56 21 27 21.5
003AD064 2019-02-12 03:07:18 21 27 21.3
003AD064 2019-02-12 02:37:39 21 27 21.2
003AD064 2019-02-12 02:08:01 21 27 21.3
003AD064 2019-02-12 01:38:23 21.1 27 21.4
003AD064 2019-02-12 01:08:44 21.1 27 21.2
003AD064 2019-02-12 00:39:05 21.1 27 21.1
003AD064 2019-02-12 00:09:26 21.1 27 21
003AD064 2019-02-11 23:39:47 21.2 27 21
003AD064 2019-02-11 23:10:09 21.2 27 20.9
003AD064 2019-02-11 22:40:32 21.3 27 20.9
003AD064 2019-02-11 22:10:54 21.4 27 21.1
003AD064 2019-02-11 21:41:16 21.4 27 21
003AD064 2019-02-11 21:11:38 21.5 27 20.7
003AD064 2019-02-11 20:42:00 21.6 27 20.5
003AD064 2019-02-11 20:12:22 21.7 27 20.1
003AD064 2019-02-11 19:42:43 21.8 27 20.4
003AD064 2019-02-11 19:13:06 22 27 20.6
003AD064 2019-02-11 18:43:27 22.1 26 21.5
003AD064 2019-02-11 18:13:48 22.2 26 20.2
003AD064 2019-02-11 17:44:10 22.3 27 19.5
003AD064 2019-02-11 17:14:32 22.3 27 11.5
003AD064 2019-02-11 16:44:51 22.2 29 0